CW0333 Weather Reports


time (UTC)temp
C
wind
direction
speed
KPH
gust
KPH
rain 1hr
cm
rain 24hr
cm
rain mn
cm
humidity
%
barometer
mb
20260505035612 15 270 4.8 12.9 0.00 0.00 0.00 59 1010.1
20260505035109 15 257 16.1 20.9 0.00 0.00 0.00 58 1010.1
20260505034606 15 262 4.8 16.1 0.00 0.00 0.00 60 1010.0
20260505034102 15 237 8.0 20.9 0.00 0.00 0.00 59 1010.2
20260505033559 15 253 8.0 9.7 0.00 0.00 0.00 60 1010.2
20260505033058 15 260 3.2 12.9 0.00 0.00 0.00 60 1009.9
20260505032555 15 237 4.8 11.3 0.00 0.00 0.00 59 1010.2
20260505032051 15 283 3.2 17.7 0.00 0.00 0.00 57 1010.0
20260505031549 15 253 6.4 19.3 0.00 0.00 0.00 57 1009.8
20260505031045 15 228 8.0 11.3 0.00 0.00 0.00 58 1010.0
20260505030542 15 203 9.7 17.7 0.00 0.00 0.00 57 1009.9
20260505030038 15 247 4.8 20.9 0.00 0.00 0.00 58 1010.0
20260505025534 16 235 4.8 20.9 0.00 0.00 0.00 57 1009.9
20260505025033 16 284 4.8 16.1 0.00 0.00 0.00 56 1010.0
20260505024529 16 244 6.4 35.4 0.00 0.00 0.00 56 1009.9
20260505024027 16 257 11.3 17.7 0.00 0.00 0.00 56 1009.9
20260505023523 16 234 14.5 20.9 0.00 0.00 0.00 55 1010.0
20260505023021 16 249 14.5 24.1 0.00 0.00 0.00 55 1010.0
20260505022519 16 265 3.2 20.9 0.00 0.00 0.00 55 1010.1
20260505022015 16 210 11.3 19.3 0.00 0.00 0.00 56 1009.9
20260505021512 16 228 11.3 17.7 0.00 0.00 0.00 56 1009.8
20260505021009 16 262 17.7 24.1 0.00 0.00 0.00 56 1009.8
20260505020503 15 198 6.4 11.3 0.00 0.00 0.00 60 1009.9
20260505020000 16 231 8.0 32.2 0.00 0.00 0.00 55 1009.9
20260505015458 15 201 22.5 22.5 0.00 0.00 0.00 60 1009.6
20260505014954 13 183 6.4 14.5 0.00 0.00 0.00 66 1009.8
20260505014452 15 188 11.3 17.7 0.00 0.00 0.00 66 1009.7
20260505013949 17 233 14.5 27.4 0.00 0.00 0.00 52 1009.5
20260505013446 17 231 11.3 22.5 0.00 0.00 0.00 52 1009.4
20260505012943 17 247 17.7 27.4 0.00 0.00 0.00 52 1009.4
20260505012441 17 235 14.5 24.1 0.00 0.00 0.00 51 1009.2
20260505011938 16 235 12.9 22.5 0.00 0.00 0.00 53 1009.2
20260505011433 17 231 11.3 17.7 0.00 0.00 0.00 52 1009.0
20260505010930 16 221 9.7 16.1 0.00 0.00 0.00 53 1008.9
20260505010421 16 242 14.5 19.3 0.00 0.00 0.00 55 1008.9
20260505005917 13 198 8.0 11.3 0.00 0.00 0.00 67 1008.6
20260505005414 13 52 3.2 6.4 0.00 0.00 0.00 70 1008.6
20260505004911 13 90 0.0 9.7 0.00 0.00 0.00 71 1008.6
20260505004408 13 140 0.0 6.4 0.00 0.00 0.00 69 1008.5
20260505003905 13 248 4.8 12.9 0.00 0.00 0.00 72 1008.5
20260505003401 13 168 3.2 20.9 0.00 0.00 0.00 71 1008.4
20260505002858 13 178 6.4 16.1 0.00 0.00 0.00 72 1008.3
20260505002354 16 212 12.9 20.9 0.00 0.00 0.00 58 1008.1
20260505001853 17 237 4.8 4.8 0.00 0.00 0.00 46 1008.0
20260505001349 17 239 3.2 4.8 0.00 0.00 0.00 47 1008.0
20260505000847 17 246 1.6 3.2 0.00 0.00 0.00 48 1007.9
20260505000345 17 278 0.0 3.2 0.00 0.00 0.00 46 1007.9
20260504235841 17 352 0.0 6.4 0.00 0.00 0.00 45 1007.7
20260504235338 17 260 3.2 3.2 0.00 0.00 0.00 46 1007.8
20260504234835 18 270 0.0 3.2 0.00 0.00 0.00 45 1007.6
20260504234332 18 249 0.0 3.2 0.00 0.00 0.00 44 1007.6
20260504233829 18 264 0.0 3.2 0.00 0.00 0.00 45 1007.4
20260504233325 18 237 3.2 6.4 0.00 0.00 0.00 44 1007.4
20260504232822 18 294 3.2 6.4 0.00 0.00 0.00 43 1007.4
20260504232319 19 292 3.2 4.8 0.00 0.00 0.00 43 1007.2
20260504231815 20 300 4.8 9.7 0.00 0.00 0.00 42 1007.3
20260504231312 20 299 3.2 8.0 0.00 0.00 0.00 40 1007.1
20260504230808 19 249 8.0 11.3 0.00 0.00 0.00 42 1007.1
20260504230306 20 216 4.8 9.7 0.00 0.00 0.00 43 1007.1
20260504225805 20 258 4.8 6.4 0.00 0.00 0.00 41 1006.9
20260504225301 20 266 4.8 6.4 0.00 0.00 0.00 41 1006.9
20260504224758 20 301 3.2 8.0 0.00 0.00 0.00 42 1007.1
20260504224255 20 261 6.4 8.0 0.00 0.00 0.00 41 1006.9
20260504223751 20 270 3.2 4.8 0.00 0.00 0.00 41 1007.0
20260504223247 20 262 4.8 4.8 0.00 0.00 0.00 40 1006.7
20260504222744 20 294 3.2 11.3 0.00 0.00 0.00 37 1006.9
20260504222241 21 255 6.4 6.4 0.00 0.00 0.00 37 1006.9
20260504221739 21 317 12.9 12.9 0.00 0.00 0.00 37 1006.9
20260504221236 21 304 6.4 11.3 0.00 0.00 0.00 37 1006.7
20260504220732 21 259 11.3 14.5 0.00 0.00 0.00 36 1007.1
20260504220229 21 311 4.8 14.5 0.00 0.00 0.00 35 1006.9
20260504215726 21 312 6.4 14.5 0.00 0.00 0.00 36 1006.8
20260504215223 21 317 9.7 11.3 0.00 0.00 0.00 37 1006.7
20260504214713 21 195 3.2 6.4 0.00 0.00 0.00 38 1006.8
20260504214210 21 324 4.8 17.7 0.00 0.00 0.00 36 1006.7
20260504213707 21 264 4.8 12.9 0.00 0.00 0.00 37 1006.6
20260504213203 21 321 8.0 12.9 0.00 0.00 0.00 35 1006.8
20260504212700 21 260 6.4 24.1 0.00 0.00 0.00 36 1006.8
20260504212157 22 276 4.8 17.7 0.00 0.00 0.00 34 1006.8
20260504211654 22 279 0.0 12.9 0.00 0.00 0.00 33 1006.8
20260504211150 22 328 8.0 11.3 0.00 0.00 0.00 33 1006.7
20260504210648 23 321 11.3 17.7 0.00 0.00 0.00 33 1006.6
20260504210144 23 41 6.4 11.3 0.00 0.00 0.00 33 1006.6
20260504205642 23 308 6.4 17.7 0.00 0.00 0.00 33 1006.6
20260504205139 22 313 4.8 12.9 0.00 0.00 0.00 33 1006.5
20260504204637 22 305 9.7 16.1 0.00 0.00 0.00 34 1006.6
20260504204136 21 315 17.7 22.5 0.00 0.00 0.00 34 1006.5
20260504203634 21 253 11.3 19.3 0.00 0.00 0.00 35 1006.6
20260504203132 22 311 8.0 12.9 0.00 0.00 0.00 34 1006.6
20260504202631 21 307 9.7 20.9 0.00 0.00 0.00 34 1006.7
20260504202129 21 255 1.6 8.0 0.00 0.00 0.00 37 1006.8
20260504201625 21 306 11.3 16.1 0.00 0.00 0.00 34 1006.7
20260504201123 21 323 0.0 9.7 0.00 0.00 0.00 34 1006.8
20260504200620 21 315 9.7 20.9 0.00 0.00 0.00 34 1006.9
20260504200116 21 246 16.1 24.1 0.00 0.00 0.00 33 1006.8
20260504195613 22 320 4.8 19.3 0.00 0.00 0.00 32 1006.6
20260504195109 21 238 6.4 14.5 0.00 0.00 0.00 34 1006.8
20260504194606 21 263 8.0 25.7 0.00 0.00 0.00 34 1006.9
20260504194101 21 322 9.7 30.6 0.00 0.00 0.00 33 1006.8
20260504193558 22 318 12.9 14.5 0.00 0.00 0.00 32 1006.8
20260504193056 22 282 0.0 14.5 0.00 0.00 0.00 32 1006.8
20260504192554 21 260 11.3 11.3 0.00 0.00 0.00 34 1006.8
20260504192052 21 338 3.2 12.9 0.00 0.00 0.00 33 1006.8
20260504191550 21 196 14.5 16.1 0.00 0.00 0.00 33 1006.9
20260504191046 21 296 6.4 14.5 0.00 0.00 0.00 34 1007.0
20260504190542 21 321 6.4 24.1 0.00 0.00 0.00 33 1007.0
20260504190038 20 314 19.3 35.4 0.00 0.00 0.00 35 1007.0
20260504185536 22 224 12.9 27.4 0.00 0.00 0.00 33 1007.3
20260504185032 22 270 9.7 19.3 0.00 0.00 0.00 34 1007.0
20260504184528 21 319 8.0 20.9 0.00 0.00 0.00 34 1006.8
20260504184023 22 295 3.2 20.9 0.00 0.00 0.00 32 1006.8
20260504183521 21 279 0.0 12.9 0.00 0.00 0.00 34 1007.1
20260504183019 21 242 8.0 27.4 0.00 0.00 0.00 34 1006.9
20260504182515 22 237 14.5 17.7 0.00 0.00 0.00 34 1007.1
20260504182013 21 252 24.1 24.1 0.00 0.00 0.00 34 1007.0
20260504181509 21 240 8.0 35.4 0.00 0.00 0.00 35 1007.0
20260504181008 21 232 11.3 33.8 0.00 0.00 0.00 34 1007.0
20260504180506 21 270 3.2 14.5 0.00 0.00 0.00 35 1007.1
20260504180005 21 315 4.8 20.9 0.00 0.00 0.00 38 1007.1
20260504175502 21 233 4.8 19.3 0.00 0.00 0.00 38 1007.1
20260504174959 21 255 11.3 16.1 0.00 0.00 0.00 35 1007.2
20260504174456 21 242 9.7 17.7 0.00 0.00 0.00 36 1007.1
20260504173953 21 255 20.9 22.5 0.00 0.00 0.00 35 1007.3
20260504173450 21 249 16.1 22.5 0.00 0.00 0.00 35 1007.5
20260504172947 21 240 6.4 16.1 0.00 0.00 0.00 37 1007.4
20260504172443 20 240 8.0 24.1 0.00 0.00 0.00 38 1007.3
20260504171940 20 143 3.2 33.8 0.00 0.00 0.00 38 1007.4
20260504171437 20 244 17.7 40.2 0.00 0.00 0.00 36 1007.2
20260504170934 20 243 12.9 24.1 0.00 0.00 0.00 37 1007.3
20260504170430 20 292 3.2 22.5 0.00 0.00 0.00 37 1007.5
20260504160349 19 244 6.4 25.7 0.00 0.00 0.00 40 1007.5
20260504150814 19 256 9.7 16.1 0.00 0.00 0.00 39 1008.1
20260504150311 18 297 4.8 8.0 0.00 0.00 0.00 41 1008.3
20260504141241 17 275 3.2 14.5 0.00 0.00 0.00 45 1009.0
20260504140737 17 311 8.0 9.7 0.00 0.00 0.00 44 1009.0
20260504140233 17 250 6.4 11.3 0.00 0.00 0.00 46 1009.1
20260504130702 15 319 6.4 11.3 0.00 0.00 0.00 50 1009.7
20260504130157 14 248 8.0 12.9 0.00 0.00 0.00 50 1009.8
20260504120122 10 257 1.6 8.0 0.00 0.00 0.00 62 1010.3
20260504110549 9 266 4.8 6.4 0.00 0.00 0.00 66 1010.3
20260504100511 7 283 1.6 6.4 0.00 0.00 0.00 69 1010.0
20260504081904 7 247 3.2 8.0 0.00 0.00 0.00 64 1009.8
20260504081400 7 270 3.2 4.8 0.00 0.00 0.00 64 1009.9
20260504080856 7 318 4.8 8.0 0.00 0.00 0.00 64 1009.8
20260504080354 7 310 3.2 6.4 0.00 0.00 0.00 65 1009.7
20260504070321 6 277 0.0 4.8 0.00 0.00 0.00 65 1009.8
20260504060241 5 275 3.2 4.8 0.00 0.00 0.00 68 1009.9
20260504050703 5 285 0.0 3.2 0.00 0.00 0.00 73 1010.0
20260504050200 5 340 1.6 3.2 0.00 0.00 0.00 72 1010.0
20260504045657 5 297 3.2 3.2 0.00 0.00 0.00 72 1010.1
20260504045152 5 286 3.2 3.2 0.00 0.00 0.00 72 1010.0
20260504044650 5 283 3.2 4.8 0.00 0.00 0.00 70 1010.1
20260504044147 5 294 0.0 4.8 0.00 0.00 0.00 69 1009.9
20260504043644 5 299 0.0 4.8 0.00 0.00 0.00 69 1010.1
20260504043141 5 324 3.2 4.8 0.00 0.00 0.00 69 1010.0
20260504042638 6 334 0.0 4.8 0.00 0.00 0.00 67 1010.2
20260504042135 6 278 1.6 6.4 0.00 0.00 0.00 66 1010.0
20260504041630 6 297 3.2 6.4 0.00 0.00 0.00 66 1010.3
20260504041127 6 334 3.2 4.8 0.00 0.00 0.00 66 1010.0
20260504040624 6 285 1.6 4.8 0.00 0.00 0.00 67 1009.9
20260504040121 6 279 3.2 6.4 0.00 0.00 0.00 66 1010.1